map of SKG home
SKG - Airport
Location
City:  Thessaloniki, KentrikÝ MakedonÝa (Central Macedonia), Greece
Near (Alt.):Saloniki
Name:Makedonia
ICAO:LGTS
IATA:SKG

Details
Type:Airport (Aerodrome, Airfield)
Use:Public/Civil, International (customs port of entry)
Latitude:40░31'11"N (40.519725)
Longitude:22░58'15"E (22.970950)
Datum:WGS 1984
Elevation:22 ft (7 m)
Variation:4.61░E (WMM2015 magnetic declination)
0.10░ annual change
Runways:2
Longest:8005 × 164 ft (2440 × 50 m), paved

Time
Time Zone:UTC+2 (DST+3)
Local Time:

Weather
METAR:LGTS 190250Z 10004KT CAVOK 10/04 Q1018 NOSIG
TAF:LGTS 182300Z 1900/1924 VRB03KT CAVOK

Related Locations
Nearby:
Farthest:CHT: 11420 mi / 18379 km
Waitangi [Tuuta], CIT, NZ

Find:

   beyond  
but within

Other Information
Maps:
NOTAMs:
Links:
Sources:

  
flag of Greece   

Airport Diagram

Airport diagram for SKG

Larger airport diagram (OBSOLETE) from NGA

Sectional Chart

Flight Planning
at skyvector.com

Satellite Image

Google Maps Satellite view

 

Copyright © 2004-2017 Karl L. Swartz. All rights reserved.
The Great Circle Mapper name and logo are trademarks of the Great Circle Mapper.
All other trademarks mentioned herein belong to their respective owners.
Please see credits for attibutions and further copyright information.

  Follow gcmap on Facebook Follow gcmap on Twitter Follow gcmap on Google+ GCmap on LinkedIn

hCard Microformat

Geo Microformat